This is the latest recevied weather packets stored in our database for station/object W7WSW. If no packets are shown the sender has not sent any weather packets the latest 10 day(s).
| Time | Temp. | Humidity | Pressure | Rain* | Wind** | Luminosity | Snow |
|---|---|---|---|---|---|---|---|
| 1778361311 | 17.22° C | 73% | 1018.1 hPa | 0 mm | - | 714 W/m² | - |
| 1778361250 | 17.22° C | 73% | 1018.1 hPa | 0 mm | - | 652 W/m² | - |
| 1778361191 | 17.22° C | 73% | 1018.1 hPa | 0 mm | - | 715 W/m² | - |
| 1778361128 | 17.22° C | 73% | 1018.1 hPa | 0 mm | - | 659 W/m² | - |
| 1778361063 | 17.22° C | 73% | 1018 hPa | 0 mm | - | 642 W/m² | - |
| 1778361002 | 17.22° C | 73% | 1018.1 hPa | 0 mm | - | 598 W/m² | - |
| 1778360943 | 17.22° C | 73% | 1018.1 hPa | 0 mm | - | 619 W/m² | - |
| 1778360882 | 17.22° C | 73% | 1018 hPa | 0 mm | - | 577 W/m² | - |
| 1778360822 | 17.22° C | 74% | 1018.1 hPa | 0 mm | - | 601 W/m² | - |
| 1778360758 | 16.67° C | 74% | 1018.1 hPa | 0 mm | - | 664 W/m² | - |
| 1778360696 | 16.67° C | 74% | 1018.2 hPa | 0 mm | - | 610 W/m² | - |
| 1778360636 | 16.67° C | 74% | 1018.2 hPa | 0 mm | - | 608 W/m² | - |
| 1778360576 | 16.67° C | 73% | 1018.2 hPa | 0 mm | - | 554 W/m² | - |
| 1778360516 | 16.67° C | 73% | 1018.2 hPa | 0 mm | - | 555 W/m² | - |
| 1778360478 | 16.67° C | 73% | 1018.2 hPa | 0 mm | - | 545 W/m² | - |
| 1778360390 | 16.67° C | 72% | 1018.2 hPa | 0 mm | - | 645 W/m² | - |
| 1778360330 | 16.67° C | 72% | 1018.1 hPa | 0 mm | - | 636 W/m² | - |
| 1778360270 | 16.67° C | 72% | 1018.3 hPa | 0 mm | - | 582 W/m² | - |
| 1778360210 | 17.22° C | 72% | 1018.2 hPa | 0 mm | - | 526 W/m² | - |
| 1778360149 | 17.22° C | 72% | 1018.3 hPa | 0 mm | - | 573 W/m² | - |
| 1778360088 | 17.22° C | 72% | 1018.2 hPa | 0 mm | - | 563 W/m² | - |
| 1778360028 | 17.22° C | 71% | 1018.3 hPa | 0 mm | - | 621 W/m² | - |
| 1778359966 | 17.22° C | 70% | 1018.3 hPa | 0 mm | - | 619 W/m² | - |
| 1778359904 | 17.22° C | 71% | 1018.2 hPa | 0 mm | - | 754 W/m² | - |
| 1778359843 | 17.78° C | 71% | 1018.3 hPa | 0 mm | - | 754 W/m² | - |
* Rain latest hour (hover to see other rain measurements)
** Current wind speed in m/s (hover to see current wind gust speed)